User: anonymous   Login
Location: Observatorio Las Palmas
(29.0667°N, 110.9333°W)
Time: 03:46:50
(UTC-07:00)
Language:

Skynet4D Del rocket - Orbit

View from above orbital plane
View from above orbital plane
View from above satellite
View from above satellite

Ground track
Ground track

The orbit data is extracted from the following two-line orbital elements,

1 25135U 98002B   17014.96043078 +.00000135 +00000-0 +22787-4 0  9994
2 25135 026.8826 247.9505 0356356 051.0707 067.1416 13.62344103947305
Epoch (UTC): 14 January 2017 23:03:01
Eccentricity: 0.0356356
inclination: 26.8826°
perigee height: 763 km
apogee height: 1291 km
right ascension of ascending node: 247.9505°
argument of perigee: 51.0707°
revolutions per day: 13.62344103
mean anomaly at epoch: 67.1416°
orbit number at epoch: 94730

The dashed part of the orbit path shows where the satellite is in the earth's shadow,  

DLR